Skip Navigation Links
NOAA logo - Click to go to the NOAA homepage
NOAA's National Weather Service
Alaska Aviation Weather Unit
  NWS logo - Click to go to the NWS homepage
Left Navbar Graphic     03 AKDT = 11 GMT

   
NOAA is celebrating 200 years of science, service, and stewardship. Visit the NOAA 200th celebration Web site to learn more.
USA.gov is the U.S. Government's official Web portal to all Federal, state and local government Web resources and services.
Facebook
NWS on Facebook

Important Change Regarding the AAWU Web Presence

 

Over the last several months, the AAWU has been working to navigate its webpages to a nationally supported server. Security, as well as other needs, have necessitated the change.  We have been given an extension for the site changeover while we diligently work at addressing feedback received. As of July 14, 2017, aawu.arh.noaa.gov will be discontinued. The new AAWU web address is weather.gov/aawu. It is now live and will run in-parallel with the old site until it is discontinued on July 14, 2017. Please continue to send any feedback or questions regarding the new webpages to nws.ar.aawu.webauthors@noaa.gov.  Thank you for your patience during this time of transition.
AAWU Home :: Display TAF Add Bookmark
METAR PATL 230555Z AUTO VRB02KT 10SM SCT037 11/07 A2979=

METAR PATL 230655Z AUTO VRB02KT 10SM CLR 10/07 A2979=

METAR PATL 230755Z AUTO 22001KT 10SM FEW055 10/07 A2979=

METAR PATL 230855Z AUTO VRB02KT 10SM CLR 09/07 A2978=

METAR PATL 230955Z AUTO 23001KT 10SM FEW050 08/06 A2977=

METAR PATL 231055Z AUTO VRB01KT 10SM FEW050 08/06 A2977=


NOAA's National Weather Service
Alaska Aviation Weather Unit
6930 Sand Lake Road
Anchorage, AK 99502-1845
Disclaimer
Credits
Glossary
Privacy Policy
About Us
Career Opportunities
Contact AAWU Internet Services Site last modified: April, 17th 2012